www.pogodaiklimat.ru
Время
(UTC), дата
23 6.08
22 6.08
00 7.08
01 7.08
02 7.08
03 7.08
05 7.08
04 7.08
06 7.08
07 7.08
08 7.08
09 7.08
11 7.08
10 7.08
12 7.08
13 7.08
14 7.08
15 7.08
17 7.08
16 7.08
18 7.08
19 7.08
20 7.08
21 7.08
23 7.08
22 7.08
00 8.08
01 8.08
02 8.08
03 8.08
05 8.08
04 8.08
06 8.08
07 8.08
08 8.08
09 8.08
11 8.08
10 8.08
12 8.08
13 8.08
14 8.08
15 8.08
17 8.08
16 8.08
18 8.08
19 8.08
20 8.08
21 8.08
23 8.08
22 8.08
00 9.08
01 9.08
02 9.08
03 9.08
05 9.08
04 9.08
06 9.08
07 9.08
08 9.08
09 9.08
11 9.08
10 9.08
12 9.08
13 9.08
14 9.08
15 9.08
17 9.08
16 9.08
18 9.08
19 9.08
20 9.08
21 9.08
23 9.08
22 9.08
00 10.08
01 10.08
02 10.08
03 10.08
05 10.08
04 10.08
06 10.08
07 10.08
08 10.08
09 10.08
11 10.08
10 10.08
12 10.08
13 10.08
14 10.08
15 10.08
17 10.08
16 10.08
18 10.08
19 10.08
20 10.08
21 10.08
23 10.08
22 10.08
00 11.08
01 11.08
02 11.08
03 11.08
05 11.08
04 11.08
06 11.08
07 11.08
08 11.08
09 11.08
11 11.08
10 11.08
12 11.08
13 11.08
14 11.08
15 11.08
17 11.08
16 11.08
18 11.08
19 11.08
20 11.08
21 11.08
23 11.08
22 11.08
00 12.08
01 12.08
02 12.08
03 12.08
05 12.08
04 12.08
06 12.08
07 12.08
08 12.08
09 12.08
11 12.08
10 12.08
12 12.08
13 12.08
14 12.08
15 12.08
17 12.08
16 12.08
18 12.08
19 12.08
20 12.08
21 12.08
23 12.08
22 12.08
00 13.08
01 13.08
02 13.08
03 13.08
05 13.08
04 13.08
06 13.08
07 13.08
08 13.08
09 13.08
11 13.08
10 13.08
12 13.08
13 13.08
14 13.08
15 13.08
17 13.08
16 13.08
18 13.08
19 13.08
20 13.08
21 13.08
22 13.08
Ветер
(напр.,м/с)
Видим. Явления Облачность Т
(С)
Тd
(С)
f
(%)
Тe
(С)
Тes
(С)
Комфортность P
(гПа)
Po
(гПа)
Тmin
(С)
Tmax
(С)
R
(мм)
R24
(мм)
S
(см)
З 1-1
{3}
19 км ясно +14.1 +13.8 98 +14 +14 тепло 1025.2 1018.7
З 2-3
{3}
12 км ясно +14.9 +14.6 98 +15 +15 тепло 1024.8 1018.3
З 1-1
{1}
200 м туман поземный 1/0 50 м
[Ci fib]
+13.3 +13.1 99 +13 +13 тепло 1025.5 1019.0
ЮЗ 2-2
{3}
100 м туман ?/? +13.3 +13.1 99 +12 +12 тепло 1025.9 1019.3
З 1-2
{2}
200 м туман ?/? +13.3 +13.2 99 +13 +13 тепло 1026.1 1019.6
З 1-1
{2}
300 м туман ?/? +13.6 +13.5 99 +14 +14 тепло 1026.5 1019.9
З 1-1
{2}
19 км 10/10 1000 м
[]
+15.9 +15.7 99 +17 +17 тепло 1027.3 1020.8
СЗ 1-1
{2}
9000 м в посл. час туман 10/10 1000 м
[]
+14.8 +14.8 100 +15 +15 тепло 1026.7 1020.2
ЮЗ 1-2
{2}
28 км 10/10 1000 м
[Sc]
+16.8 +16.2 96 +18 +18 тепло 1027.3 1020.8 +12.9 +18.1
Ю 1-2
{3}
35 км 10/10 1000 м
[]
+19.0 +16.6 86 +22 +22 комфорт 1027.4 1021.0
ЮЗ 3-4
{4}
50 км 8/8 1230 м
[]
+20.5 +16.2 76 +24 +25 комфорт 1027.3 1021.0
Ю 3-5
{5}
40 км 1/1 600 м
[Cu hum Ci fib]
+21.9 +15.6 67 +26 +33 душно 1027.0 1020.6
Ю 4-6
{6}
45 км 9/9 1000 м
[]
+22.5 +16.5 69 +27 +28 душно 1026.9 1020.6
Ю 3-6
{6}
50 км 9/9 600 м
[]
+22.1 +15.8 67 +26 +27 душно 1026.9 1020.6
Ю 4-6
{7}
30 км 9/9 1000 м
[Cu Sc Ci fib]
+22.4 +16.8 71 +27 +28 душно 1027.0 1020.7
Ю 4-5
{6}
45 км 6/6 1500 м
[]
+23.7 +18.0 70 +28 +30 душно 1026.7 1020.4
Ю 4-6
{6}
50 км ясно +22.7 +17.4 72 +28 +32 душно 1026.4 1020.1
ЮЗ 3-4
{7}
50 км 8/8 1500 м
[Sc Ci fib]
+22.5 +17.6 74 +28 +28 душно 1026.3 1020.0
ЮЗ 3-4
{5}
45 км ясно +23.3 +17.4 69 +29 +29 душно 1025.7 1019.4
ЮЗ 3-5
{5}
50 км 10/10 1500 м
[]
+23.4 +18.0 72 +29 +29 душно 1026.0 1019.7
ЮЗ 3-5
{5}
50 км ясно +21.7 +17.4 77 +26 +26 душно 1025.8 1019.5 +16.9 +24.2
ЮЗ 3-3
{5}
50 км ясно +19.9 +17.2 84 +23 +23 комфорт 1025.9 1019.5
Ю 3-3
{3}
50 км ясно +18.9 +16.8 88 +20 +20 тепло 1025.9 1019.5
ЮЗ 2-3
{3}
50 км ясно +18.0 +16.5 91 +19 +19 тепло 1026.0 1019.6
З 1-2
{3}
27 км ясно +16.5 +16.0 97 +17 +17 тепло 1026.2 1019.7
ЮЗ 2-3
{3}
40 км ясно +17.3 +16.5 95 +18 +18 тепло 1026.1 1019.7
СЗ 1-2
{2}
17 км туман местами ясно +16.5 +16.1 97 +17 +17 тепло 1026.2 1019.7
СЗ 1-2
{2}
13 км ясно +16.1 +15.8 98 +17 +17 тепло 1026.2 1019.7
СЗ 1-2
{2}
29 км ясно +15.5 +15.0 97 +16 +16 тепло 1026.2 1019.7
СЗ 1-1
{2}
50 км туман ясно +15.1 +14.3 95 +16 +16 тепло 1026.1 1019.6
ЮЗ 1-1
{2}
50 км ясно +18.9 +16.7 87 +21 +24 комфорт 1026.0 1019.6
З 2-2
{2}
30 км ясно +16.3 +15.6 96 +16 +17 тепло 1026.2 1019.7
З 2-3
{3}
50 км {туман} ясно +21.2 +13.7 62 +24 +28 комфорт 1025.9 1019.5 +15.0 +21.7
З 2-3
{3}
50 км ясно +22.9 +12.7 53 +26 +32 жарко 1025.5 1019.2
З 3-4
{5}
45 км ясно +24.6 +11.3 43 +26 +33 жарко 1025.2 1018.9
З 3-4
{5}
50 км ясно +25.7 +12.5 44 +27 +36 жарко 1024.8 1018.6
ЮЗ 4-8
{8}
45 км ясно +26.6 +13.8 45 +29 +36 жарко 1024.1 1017.9
З 4-6
{6}
45 км ясно +26.4 +13.9 46 +29 +36 жарко 1024.5 1018.3
З 4-7
{7}
45 км ясно +27.6 +14.6 45 +30 +37 жарко 1023.6 1017.4
ЮЗ 4-6
{7}
35 км ясно +27.3 +14.7 46 +30 +35 душно 1023.1 1016.9
ЮЗ 6-8
{8}
50 км ясно +27.5 +14.6 45 +30 +32 жарко 1022.6 1016.4
ЮЗ 4-6
{8}
50 км ясно +27.2 +13.9 44 +29 +32 жарко 1022.2 1016.0
З 4-6
{7}
50 км ясно +25.6 +12.9 45 +27 +28 жарко 1021.6 1015.3
З 5-7
{7}
45 км ясно +26.7 +12.0 40 +28 +29 жарко 1021.8 1015.6
З 3-4
{6}
45 км ясно +23.2 +14.1 57 +27 +27 душно 1021.4 1015.1 +21.1 +28.1
З 4-4
{5}
50 км ясно +21.0 +14.0 64 +24 +24 комфорт 1021.5 1015.2
З 2-2
{4}
50 км ясно +19.4 +14.4 73 +22 +22 комфорт 1021.3 1014.9
З 2-3
{3}
50 км ясно +18.1 +14.1 77 +19 +19 тепло 1021.2 1014.8
З 2-2
{2}
50 км ясно +16.6 +13.7 83 +17 +17 тепло 1021.2 1014.8
З 1-2
{3}
50 км ясно +17.8 +13.7 77 +19 +19 тепло 1021.3 1014.9
ЮЗ 1-1
{2}
50 км ясно +15.7 +13.4 86 +16 +16 тепло 1021.2 1014.7
ЮЗ 1-2
{2}
50 км ясно +14.9 +13.1 89 +15 +15 тепло 1021.0 1014.6
ЮЗ 2-2
{2}
50 км ясно +14.7 +13.0 90 +14 +14 тепло 1021.0 1014.5
ЮЗ 2-2
{3}
50 км местами туман поземный ясно +14.8 +12.5 86 +14 +15 тепло 1020.7 1014.3
ЮЗ 4-5
{5}
50 км ясно +19.2 +12.9 67 +20 +22 тепло 1020.3 1013.9
ЮЗ 2-3
{3}
50 км ясно +16.4 +12.7 79 +17 +17 тепло 1020.6 1014.2
ЮЗ 4-6
{6}
50 км ясно +21.5 +13.4 60 +24 +27 комфорт 1020.0 1013.7 +14.6 +23.1
З 5-7
{7}
50 км ясно +23.3 +13.1 53 +26 +30 жарко 1019.8 1013.6
З 6-8
{8}
45 км ясно +24.8 +13.5 49 +27 +30 жарко 1019.6 1013.4
З 6-9
{9}
45 км 4/4
[]
+25.8 +14.8 51 +29 +31 душно 1019.5 1013.3
ЮЗ 5-7
{8}
45 км ясно +27.3 +14.6 46 +30 +35 душно 1019.0 1012.8
З 6-8
{9}
45 км 3/3
[]
+26.7 +15.2 49 +29 +32 жарко 1019.3 1013.1
З 4-7
{8}
45 км ясно +27.3 +14.2 45 +30 +36 душно 1018.7 1012.5
З 5-8
{8}
50 км ясно +27.6 +15.9 49 +31 +35 душно 1018.2 1012.1
СЗ 3-5
{8}
40 км 1/1
[]
+27.9 +15.9 48 +31 +35 душно 1017.6 1011.4
СЗ 7-16
{16}
3100 м в посл. час гроза 8/5 1440 м
[Cb cap Ac As Ci ing]
+20.7 +16.0 74 +24 +24 комфорт 1017.8 1011.5 4
З 3-3
{3}
50 км 1/1 2000 м
[]
+25.0 +18.6 68 +30 +30 душно 1017.4 1011.2
СЗ 3-4
{5}
50 км в посл. час дождь 1/1
[]
+25.4 +18.9 67 +30 +32 душно 1017.6 1011.4 0.3
С 2-2
{4}
50 км {гроза, ливн. дождь} 3/3 1500 м
[Sc diur, vesp Ac cast Ci ing]
+24.1 +19.0 73 +29 +29 душно 1017.5 1011.2 +20.6 +28.7
С 2-3
{3}
24 км ясно +22.7 +18.7 78 +28 +28 душно 1017.9 1011.6
СЗ 3-4
{4}
50 км 4/4
[]
+21.6 +18.1 80 +26 +26 душно 1018.3 1012.0
СЗ 4-5
{6}
50 км ясно +19.9 +16.6 81 +22 +22 комфорт 1018.7 1012.4
С 4-6
{7}
50 км 1/1
[]
+17.8 +13.4 75 +18 +18 тепло 1019.2 1012.8
СЗ 5-6
{7}
50 км 5/5
[]
+19.3 +14.5 74 +21 +21 комфорт 1018.9 1012.6
С 4-5
{7}
50 км ясно +16.7 +12.8 78 +16 +16 тепло 1019.4 1013.0
С 4-6
{6}
50 км 3/3 1500 м
[]
+15.9 +11.9 77 +15 +15 тепло 1019.7 1013.3
С 5-7
{7}
50 км ясно +14.9 +10.7 76 +13 +13 тепло 1020.0 1013.6
С 4-6
{6}
50 км ясно +14.1 +10.1 77 +13 +13 по сезону 1020.4 1013.9
С 4-5
{6}
50 км ясно +15.7 +9.8 68 +15 +16 по сезону 1020.7 1014.3
С 5-6
{6}
50 км ясно +14.6 +9.8 73 +13 +13 по сезону 1020.7 1014.2
С 5-6
{7}
50 км ясно +17.3 +10.4 64 +17 +19 по сезону 1020.9 1014.5 +14.1 +24.1
С 5-8
{8}
50 км ясно +18.6 +10.8 60 +19 +22 тепло 1021.1 1014.8
С 5-7
{8}
50 км ясно +20.2 +10.3 53 +22 +26 комфорт 1021.1 1014.8
С 6-11
{11}
40 км 3/3 1000 м
[Cu hum Ci fib]
+20.9 +8.5 45 +22 +25 комфорт 1021.3 1014.9
С 6-9
{11}
50 км 5/5 1500 м
[]
+21.9 +8.7 43 +23 +25 комфорт 1021.2 1014.9
С 7-11
{11}
50 км 4/4 1500 м
[]
+21.5 +7.4 40 +22 +24 комфорт 1021.2 1014.9
С 6-9
{10}
50 км 3/3 1500 м
[Sc diur, vesp Ci fib]
+22.2 +7.6 39 +23 +26 комфорт 1021.1 1014.8
С 6-10
{10}
45 км 5/5 1500 м
[]
+22.0 +7.9 40 +23 +25 комфорт 1021.0 1014.7
С 7-10
{11}
50 км 5/5 1500 м
[]
+22.5 +7.5 38 +23 +24 комфорт 1021.0 1014.7
С 7-10
{10}
50 км 5/5 1500 м
[Sc diur, vesp]
+21.7 +8.5 43 +23 +23 комфорт 1021.1 1014.8
С 4-6
{9}
50 км 1/1 1500 м
[]
+20.4 +8.4 46 +22 +22 комфорт 1021.2 1014.9
С 4-6
{8}
50 км 1/1 2000 м
[]
+21.6 +8.2 42 +23 +24 комфорт 1020.9 1014.6
С 2-3
{6}
50 км ясно +19.3 +9.2 52 +21 +21 комфорт 1021.5 1015.1 +17.3 +23.3
С 3-5
{5}
50 км ясно +17.2 +9.1 59 +17 +17 по сезону 1021.8 1015.4
С 3-4
{5}
50 км ясно +15.9 +9.1 64 +15 +15 прохладно 1022.4 1015.9
С 3-4
{5}
50 км ясно +15.0 +9.1 68 +14 +14 по сезону 1023.0 1016.5
С 4-4
{5}
50 км ясно +13.2 +8.8 75 +12 +12 прохладно 1023.7 1017.1
С 3-4
{4}
50 км ясно +13.9 +9.0 72 +13 +13 по сезону 1023.5 1017.0
С 4-4
{4}
50 км ясно +12.3 +8.2 76 +10 +10 по сезону 1023.9 1017.3
С 4-5
{5}
50 км ясно +11.6 +8.0 79 +9 +9 по сезону 1024.1 1017.5
С 4-5
{5}
50 км ясно +11.0 +7.8 81 +9 +9 по сезону 1024.4 1017.8
С 4-5
{6}
50 км ясно +10.5 +7.7 83 +8 +8 холодно 1024.5 1017.9
С 5-6
{6}
50 км ясно +13.2 +9.0 76 +11 +12 по сезону 1024.5 1018.0
С 5-6
{6}
50 км ясно +11.6 +8.1 79 +9 +9 прохладно 1024.5 1018.0
С 4-6
{6}
50 км 5/5 1500 м
[Sc Ci fib]
+14.8 +9.7 71 +14 +15 по сезону 1024.7 1018.2 +10.4 +19.2
С 6-8
{8}
50 км ясно +16.6 +8.6 59 +16 +18 по сезону 1024.5 1018.1
С 7-10
{10}
50 км 4/4 1000 м
[]
+17.3 +6.8 50 +16 +18 тепло 1024.5 1018.0
С 7-9
{10}
50 км 8/8 1000 м
[Cu hum]
+18.3 +6.4 46 +18 +18 по сезону 1024.4 1018.0
С 6-9
{10}
50 км 5/5 1500 м
[]
+19.0 +5.3 41 +19 +21 тепло 1024.4 1018.0
С 6-8
{9}
50 км 4/4 1500 м
[]
+18.6 +5.4 42 +18 +21 по сезону 1024.5 1018.1
СВ 6-9
{10}
50 км 8/8 1500 м
[Cu hum]
+18.8 +5.4 41 +19 +19 по сезону 1024.5 1018.1
С 7-10
{10}
50 км 5/5 1500 м
[]
+19.5 +5.8 41 +20 +21 по сезону 1024.4 1018.0
С 4-7
{10}
50 км 9/9 1500 м
[]
+18.4 +5.9 44 +18 +19 прохладно 1024.6 1018.2
С 5-7
{8}
50 км 10/10 1500 м
[Sc]
+18.1 +6.3 46 +18 +18 по сезону 1024.6 1018.2
С 5-7
{8}
50 км 10/10 1500 м
[]
+17.0 +6.0 48 +16 +16 прохладно 1024.8 1018.3
С 4-6
{8}
50 км 9/9 1500 м
[]
+17.7 +6.8 49 +17 +18 по сезону 1024.7 1018.3
СВ 3-4
{7}
50 км 8/8 1500 м
[Sc Ci fib]
+15.9 +6.0 52 +16 +16 по сезону 1024.7 1018.3 +14.6 +20.4
С 2-3
{5}
50 км ясно +14.3 +6.4 59 +14 +14 прохладно 1024.8 1018.3
С 3-4
{4}
50 км 8/8 1500 м
[]
+13.8 +6.8 63 +13 +13 прохладно 1024.9 1018.4
С 4-4
{4}
50 км ясно +12.8 +6.9 67 +11 +11 прохладно 1025.0 1018.5
С 3-4
{4}
50 км ясно +10.9 +6.8 76 +9 +9 прохладно 1025.4 1018.8
СВ 3-4
{4}
50 км ясно +11.2 +6.9 75 +9 +9 прохладно 1025.2 1018.7
В 1-1
{3}
50 км 5/5 1500 м
[Sc]
+9.5 +6.9 84 +9 +9 прохладно 1025.1 1018.5
С 2-3
{3}
50 км 9/9 1500 м
[]
+9.3 +6.9 85 +8 +8 прохладно 1025.4 1018.7
С 3-4
{5}
50 км 9/9 1500 м
[]
+10.1 +7.0 81 +8 +8 по сезону 1025.4 1018.8
С 2-3
{3}
50 км 10/10 1500 м
[Sc]
+10.8 +7.1 78 +10 +10 прохладно 1025.4 1018.8
С 1-2
{3}
50 км 10/10 1500 м
[]
+12.4 +7.9 74 +12 +12 по сезону 1025.2 1018.7
С 2-3
{3}
50 км 10/10 1500 м
[]
+11.5 +7.7 77 +10 +10 по сезону 1025.3 1018.7
С 2-3
{4}
50 км 10/10 1500 м
[Sc]
+13.6 +8.4 71 +13 +13 по сезону 1025.0 1018.5 +9.3 +15.9
СВ 1-3
{3}
50 км 10/10 1500 м
[]
+15.5 +7.7 60 +16 +16 тепло 1024.7 1018.3
ЮВ 1-2
{3}
50 км 10/10 1500 м
[]
+16.6 +6.1 50 +18 +18 тепло 1024.5 1018.1
СВ 1-3
{4}
45 км 10/10 1500 м
[Sc]
+17.4 +6.0 47 +18 +18 по сезону 1024.1 1017.7
СВ 1-3
{4}
50 км 10/10 1500 м
[]
+17.7 +6.8 49 +19 +19 тепло 1023.6 1017.2
С 2-4
{4}
50 км 9/9 1000 м
[]
+17.9 +6.5 47 +18 +19 по сезону 1023.9 1017.5
З 1-2
{5}
50 км 10/10 1000 м
[Cu Sc]
+17.8 +7.7 52 +19 +19 по сезону 1023.3 1016.9
С 3-4
{4}
50 км 10/10 1500 м
[]
+18.2 +7.0 48 +18 +18 прохладно 1022.8 1016.4
С 1-2
{4}
50 км 10/10 1500 м
[]
+18.6 +7.5 48 +20 +20 по сезону 1022.2 1015.8
ЮЗ 5-7
{7}
50 км 10/10 1000 м
[Sc]
+18.0 +8.7 55 +18 +18 по сезону 1021.9 1015.5
Ю 4-6
{6}
50 км 9/9 1000 м
[]
+16.7 +9.6 63 +16 +16 прохладно 1021.1 1014.7
Ю 4-5
{6}
50 км 10/10 1000 м
[]
+17.5 +9.2 58 +17 +17 по сезону 1021.5 1015.1
ЮЗ 3-4
{6}
50 км 9/9 1500 м
[Sc]
+15.8 +10.3 70 +15 +15 по сезону 1020.8 1014.3 +13.7 +18.8
Ю 3-5
{5}
35 км морось 10/10 1000 м
[]
+15.6 +11.1 75 +15 +15 по сезону 1020.5 1014.0
ЮВ 3-4
{5}
8000 м дождь 10/10 600 м
[]
+14.4 +12.7 90 +13 +13 прохладно 1020.4 1013.9 2
В 4-6
{6}
9000 м слаб. дождь 10/10 600 м
[Sc]
+13.4 +12.8 96 +12 +12 прохладно 1020.2 1013.7 2
В 4-5
{7}
5000 м дождь 10/10 100 м
[]
+13.1 +12.7 97 +11 +11 прохладно 1019.8 1013.3 0.7
ЮВ 5-6
{6}
19 км слаб. дождь 10/10 500 м
[]
+13.3 +12.8 97 +11 +11 по сезону 1020.0 1013.5 2
В 2-3
{5}
3800 м слаб. дождь 10/10 50 м
[Sc]
+13.1 +12.8 98 +12 +12 по сезону 1019.5 1013.0 2
ЮВ 3-4
{5}
6000 м слаб. дождь 10/10 100 м
[]
+13.3 +13.0 98 +12 +12 по сезону 1019.1 1012.6 3
В 3-5
{5}
7000 м дождь 10/10 100 м
[]
+13.1 +12.6 97 +12 +12 тепло 1018.7 1012.3 1
В 3-4
{6}
15 км слаб. дождь 10/9 480 м
[Sc]
+13.0 +12.5 97 +12 +12 по сезону 1018.4 1012.0 1
В 3-5
{5}
50 км 10/10 100 м
[]
+13.7 +12.8 94 +12 +12 по сезону 1018.3 1011.8
В 3-4
{4}
40 км в посл. час морось 10/10 630 м
[]
+13.5 +13.0 97 +12 +12 по сезону 1018.3 1011.8 0.1
В 4-6
{6}
50 км {дождь} 10/10 200 м
[Sc]
+13.9 +12.7 92 +12 +12 прохладно 1018.2 1011.7 +13.0 +16.1
В 4-6
{7}
50 км 10/10 660 м
[]
+14.4 +12.5 88 +13 +13 по сезону 1018.1 1011.7
В 6-9
{9}
50 км 9/9 300 м
[]
+15.3 +11.5 78 +14 +14 по сезону 1018.3 1011.9
В 5-6
{8}
50 км 10/10 660 м
[Sc]
+15.4 +11.8 79 +14 +14 прохладно 1018.2 1011.8
В 6-8
{8}
50 км 10/10 1300 м
[]
+16.5 +11.5 72 +15 +15 по сезону 1018.2 1011.8
В 5-7
{8}
50 км 9/9 1020 м
[]
+15.9 +12.1 78 +15 +15 по сезону 1018.2 1011.8
В 5-7
{9}
50 км 6/6 1080 м
[Cu Sc]
+16.9 +10.9 68 +16 +18 прохладно 1018.1 1011.7
ЮВ 4-6
{8}
50 км 8/8 1080 м
[]
+17.6 +10.9 65 +17 +18 прохладно 1017.9 1011.6
ЮВ 5-7
{8}
50 км 6/6 1350 м
[]
+17.5 +10.4 63 +17 +18 прохладно 1018.0 1011.6
ЮВ 5-8
{9}
50 км ясно +17.0 +10.4 65 +16 +18 по сезону 1018.0 1011.6
ЮВ 4-5
{7}
50 км ясно +16.3 +9.2 63 +16 +16 по сезону 1018.0 1011.6
В 5-6
{7}
50 км ясно +16.7 +10.3 66 +16 +17 по сезону 1018.0 1011.6
В 2-3
{6}
50 км ясно +15.1 +10.4 73 +15 +15 по сезону 1018.2 1011.7 +13.9 +18.1
В 2-3
{3}
50 км ясно +13.3 +10.5 83 +13 +13 прохладно 1018.3 1011.8
В 1-2
{3}
50 км ясно +12.3 +10.4 88 +12 +12 прохладно 1018.3 1011.8
СВ 2-3
{3}
50 км ясно +11.0 +9.5 90 +10 +10 прохладно 1018.2 1011.7
СВ 2-3
{3}
50 км ясно +9.7 +8.6 93 +8 +8 холодно 1018.3 1011.7
Местоположение метеостанции Хельсинки аэропорт (Финляндия): широта 60.33 долгота 24.96 высота над уровнем моря 51 м.
В архиве по умолчанию представлена погода в Хельсинки аэропорту за последнюю неделю. Архивные данные за месяц целиком и за предыдущие месяцы, начиная с января 2011 года, Вы можете получить, выбрав интересующий диапазон дат из раскрывающегося списка и нажав кнопку "Найти!".
*Определитесь, кто Вы:
Внимание! Время в таблицах - всемирное. Для получения местного времени необходимо прибавить поправку, которая равна 1 ч.
Смотрите также архив погоды в соседних городах и на ближайших метеорологических станциях:
Партнеры нашего сайта:      
Пояснения к столбцам:
  • Ветер - указаны скорость ветра в м/с - средняя за 10 мин, порывы в срок и между сроками (в фигурных скобках) и направление, откуда дует ветер: С - северный,
  • СВ - северо-восточный, В - восточный, ЮВ - юго-восточный, Ю - южный, ЮЗ - юго-западный, З - западный, СЗ - северо-западный.
  • Видимость - горизонтальная дальность видимости в метрах или километрах. При видимости от 1 до 10 км при отсутствии осадков обычно наблюдается дымка, при ухудшении видимости до 1 км и менее - туман. В сухую погоду видимость может ухудшаться дымом, пылью или мглою.
  • Явления - указаны атмосферные явления, наблюдавшиеся в срок или в последний час перед сроком; фигурными скобками обозначены явления, наблюдавшиеся между сроками (за 1-3 часа до срока); квадратными скобками обозначены град или гололедные отложения с указанием их диаметра в мм.
  • Облачность - указаны через наклонную черту общая и нижняя облачность в баллах и высота нижней границы облаков в метрах; квадратными скобками обозначены формы облаков: Ci - перистые, Cs - перисто-слоистые, Cc - перисто-кучевые, Ac - высококучевые, As - высокослоистые, Sc - слоисто-кучевые, Ns - слоисто-дождевые, Cu - кучевые, Cb - кучево-дождевые. Подробнее классификацию облаков см. в Атласе облаков (PDF).
  • T - Температура воздуха - температура, измеренная на высоте 2 м над землей.
  • Td - Температура точки росы - температура, при понижении до которой содержащийся в воздухе водяной пар достигнет насыщения.
  • f - Относительная влажность воздуха - влажноcть воздуха, измеренная на высоте 2 м над землей.
  • Te - Эффективная температура - температура, которую ощущает одетый по сезону человек в тени. Характеристика душности погоды. При расчете учитывается влияние влажности воздуха и скорости ветра на теплоощущения человека.
  • Tes - Эффективная температура на солнце - температура, которую ощущает человек, с поправкой на солнечный нагрев. Характеристика знойности погоды. Зависит от высоты солнца над горизонтом, облачности и скорости ветра. Ночью, в пасмурную погоду, а также при ветре 12 м/с и более поправка равна нулю.
  • P - Атмосферное давление - приведенное к уровню моря атмосферное давление.
  • Po - Атмосферное давление - измеренное на уровне метеостанции атмосферное давление.
  • Tmin - Минимальная температура - минимум температуры воздуха на высоте 2 м над землей.
  • Tmax - Максимальная температура - максимум температуры воздуха на высоте 2 м над землей.
  • R - Количество осадков - Количество выпавших осадков за период времени, мм. При наведении курсора мыши на число - период времени, за который выпало указанное количество осадков.
  • R24 - Количество осадков - Количество выпавших осадков за 24 часа, мм.
  • S - Снежный покров - Высота снежного покрова, см. При наведении курсора мыши на число - состояние снежного покрова и степень покрытия местности в баллах.